"Pseudo-MPEC" for C728V8Z

Created 2023 Sep 22 6:22:07 UT using Find_Orb

Click here for an explanation of pseudo-MPECs

 
 Astrometry: 
     C728V8Z*0C2023 09 06.41171800 38 16.573-00 07 57.97   ~9H77 20.18GVNEOCPG96
     C728V8Z 0C2023 09 06.41640600 38 13.772-00 06 29.59   ~9H77 20.55GVNEOCPG96
     C728V8Z 0C2023 09 06.42109400 38 10.964-00 05 02.62   ~9H77 20.28GVNEOCPG96
     C728V8Z 0C2023 09 06.42707600 38 07.382-00 03 10.73   ~9H77       VNEOCPG96

Station data:
(G96) Mt. Lemmon Survey  (N32.442751 W110.788720)  US/Arizona.  Observer A.
   Zooniverse. 1.5-m reflector + 10K CCD.

Orbital elements:  C728V8Z
   Perihelion 2023 Aug 5.22141 +/- 39.1 TT =  5:18:49 (JD 2460161.72141)
Epoch 2023 Sep  6.0 TT = JDT 2460193.5   Earth MOID: 0.0442   Ju: 0.3526
M   3.82973425 +/- 33               (J2000 ecliptic)             AutoNEOCP
n   0.12051303 +/- 0.248            Peri.  317.15470 +/- 70
a   4.05925840 +/- 5.56             Node   345.56412 +/- 16
e   0.7660789 +/- 0.265             Incl.   17.28606 +/- 15
P   8.18                   H 25.21  G  0.15   U 11.8  SR
q 0.94954600 +/- 0.304    Q 7.16897081 +/- 22.6
From 4 observations 2023 Sept. 6 (22.1 min); mean residual 0".20
Residuals in arcseconds: 
230906 G96  .07-  .23-    230906 G96  .05+  .21-    
230906 G96  .07+  .44+    230906 G96  .05-  .01-    

Ephemerides (geocentric):
Date (UTC) HH   RA             Dec           delta  r     elong  mag " sig PA
---- --------  ------------   ------------  ------ ------ -----  --- --------
2023 09 22 06  23 41 38.140   +26 54 05.77  .20824 1.1923 152.4 23.3  58d  97
2023 09 22 07  23 41 34.906   +26 55 07.67  .20865 1.1927 152.4 23.3  58d  97
2023 09 22 08  23 41 31.685   +26 56 09.22  .20907 1.1930 152.4 23.3  58d  97
2023 09 22 09  23 41 28.476   +26 57 10.44  .20948 1.1934 152.4 23.3  58d  97
2023 09 22 10  23 41 25.280   +26 58 11.32  .20990 1.1938 152.3 23.3  58d  97
2023 09 22 11  23 41 22.097   +26 59 11.86  .21031 1.1941 152.3 23.3  58d  97
2023 09 22 12  23 41 18.927   +27 00 12.07  .21073 1.1945 152.3 23.3  58d  97
2023 09 22 13  23 41 15.769   +27 01 11.94  .21114 1.1948 152.3 23.3  58d  97
2023 09 22 14  23 41 12.624   +27 02 11.48  .21155 1.1952 152.3 23.3  58d  97
2023 09 22 15  23 41 09.492   +27 03 10.70  .21197 1.1956 152.3 23.3  58d  97
2023 09 22 16  23 41 06.372   +27 04 09.59  .21238 1.1959 152.3 23.3  58d  97
2023 09 22 17  23 41 03.264   +27 05 08.15  .21280 1.1963 152.3 23.3  58d  97
2023 09 22 18  23 41 00.169   +27 06 06.38  .21322 1.1966 152.3 23.3  58d  97
2023 09 22 19  23 40 57.087   +27 07 04.30  .21363 1.1970 152.3 23.3  58d  97
2023 09 22 20  23 40 54.016   +27 08 01.89  .21405 1.1974 152.3 23.3  58d  97
2023 09 22 21  23 40 50.958   +27 08 59.17  .21446 1.1977 152.3 23.4  58d  97
2023 09 22 22  23 40 47.912   +27 09 56.13  .21488 1.1981 152.3 23.4  58d  97
2023 09 22 23  23 40 44.879   +27 10 52.77  .21529 1.1985 152.3 23.4  58d  97
2023 09 23 00  23 40 41.857   +27 11 49.10  .21571 1.1988 152.3 23.4  58d  97
2023 09 23 01  23 40 38.848   +27 12 45.12  .21613 1.1992 152.3 23.4  58d  97
2023 09 23 02  23 40 35.851   +27 13 40.83  .21654 1.1995 152.2 23.4  58d  97
2023 09 23 03  23 40 32.866   +27 14 36.23  .21696 1.1999 152.2 23.4  58d  97
2023 09 23 04  23 40 29.892   +27 15 31.32  .21738 1.2003 152.2 23.4  58d  97
2023 09 23 05  23 40 26.931   +27 16 26.10  .21779 1.2006 152.2 23.4  58d  97
2023 09 23 06  23 40 23.981   +27 17 20.59  .21821 1.2010 152.2 23.4  58d  97
2023 09 23 07  23 40 21.044   +27 18 14.77  .21863 1.2013 152.2 23.4  58d  97
2023 09 23 08  23 40 18.118   +27 19 08.64  .21904 1.2017 152.2 23.4  58d  97
2023 09 23 09  23 40 15.204   +27 20 02.22  .21946 1.2021 152.2 23.4  58d  97
2023 09 23 10  23 40 12.301   +27 20 55.51  .21988 1.2024 152.2 23.4  57d  97
2023 09 23 11  23 40 09.411   +27 21 48.49  .22030 1.2028 152.2 23.4  57d  97
2023 09 23 12  23 40 06.532   +27 22 41.18  .22072 1.2032 152.2 23.4  57d  97
2023 09 23 13  23 40 03.664   +27 23 33.58  .22113 1.2035 152.2 23.4  57d  97
2023 09 23 14  23 40 00.808   +27 24 25.69  .22155 1.2039 152.2 23.4  57d  97
2023 09 23 15  23 39 57.964   +27 25 17.50  .22197 1.2043 152.2 23.4  57d  97
2023 09 23 16  23 39 55.131   +27 26 09.03  .22239 1.2046 152.2 23.4  57d  97
2023 09 23 17  23 39 52.309   +27 27 00.27  .22281 1.2050 152.1 23.4  57d  97
2023 09 23 18  23 39 49.499   +27 27 51.23  .22323 1.2054 152.1 23.5  57d  97
2023 09 23 19  23 39 46.700   +27 28 41.90  .22364 1.2057 152.1 23.5  57d  97
2023 09 23 20  23 39 43.912   +27 29 32.29  .22406 1.2061 152.1 23.5  57d  97
2023 09 23 21  23 39 41.136   +27 30 22.39  .22448 1.2064 152.1 23.5  57d  97
2023 09 23 22  23 39 38.371   +27 31 12.22  .22490 1.2068 152.1 23.5  57d  97
2023 09 23 23  23 39 35.617   +27 32 01.77  .22532 1.2072 152.1 23.5  57d  97
2023 09 24 00  23 39 32.874   +27 32 51.04  .22574 1.2075 152.1 23.5  57d  97
2023 09 24 01  23 39 30.142   +27 33 40.04  .22616 1.2079 152.1 23.5  57d  97
2023 09 24 02  23 39 27.422   +27 34 28.76  .22658 1.2083 152.1 23.5  57d  97
2023 09 24 03  23 39 24.712   +27 35 17.21  .22700 1.2086 152.1 23.5  57d  97
2023 09 24 04  23 39 22.013   +27 36 05.39  .22742 1.2090 152.1 23.5  57d  97
2023 09 24 05  23 39 19.325   +27 36 53.30  .22784 1.2094 152.1 23.5  57d  97